Погода в Холмце

Россия / Тверская область     56°20′45″N   33°21′23″E
темп.,
°C
ветер,
м/с
пор.,
м/с
влажн.,
%
обл.,
%
осадки,
мм/ч
давл.,
гПа
погр.,
м
11 апреля, вс
вс1100:00+5ююз4137033 0.0 1021488
03:00+4ююз2680100 0.1 1023187
06:00+4ю248595 0.1 1024121
09:00+5ююв1378100 0.3 1026181
12:00+10ююз355995 0.1 1026809
15:00+14юз375087 0.1 10271641
18:00+12всв0267100 0.0 102752
21:00+8юв227947 0.0 102942
12 апреля, пн
пн1200:00+7ю258135 0.0 103086
03:00+6ююв25835 0.0 103178
06:00+4юв25844 0.0 103193
09:00+9юв48620 0.0 1031352
12:00+13юв47450 0.0 10291019
15:00+15юв573880 0.0 10271356
18:00+12юв4849100 0.0 1025905
21:00+9юв4985100 0.1 1025608
13 апреля, вт
вт1300:00+8ююв31192100 2.3 1024555
03:00+7ююв2695100 2.4 1024192
06:00+7юв1295100 0.2 102238
09:00+9ю2691100 1.3 1022272
12:00+9ююв1395100 0.8 1022134
15:00+14ююв2474100 0.9 1021602
18:00+11юв2689100 0.3 1020170
21:00+10юв2894100 0.4 1020218
14 апреля, ср
ср1400:00+10вюв2596100 0.2 1019120
03:00+9юв2296100 0.3 101952
06:00+9ююв2794100 0.1 1018181
09:00+12ю3684100 0.1 1018376
12:00+14ю3673100 0.0 1018908
15:00+15ююз2468100 0.3 1018776
18:00+10с3595100 1.9 1018146
21:00+8ссв3596100 1.9 1020173
15 апреля, чт
чт1500:00+8св389598 0.1 1019250
03:00+6св4996100 0.1 1020316
06:00+6св3896100 0.0 1020386
09:00+5ссв4995100 0.0 1020322
12:00+7св5887100 0.1 1020483
15:00+6св5986100 0.1 1021591
18:00+4св61484100 0.0 1022586
21:00+4св5138092 0.1 1023842